Location: Atbuku
(36.4936°N, 30.4362°E)
Time: 17:16:40
(UTC+00:00)

COSMO-SKYMED 1 - Visible Passes

Search period start: 14 March 2026 00:00
Search period end: 24 March 2026 00:00
Orbit: 576 x 579 km, 97.9° (Epoch: 14 March)

Date Brightness Start Highest point End Pass type
(mag) Time Alt. Az. Time Alt. Az. Time Alt. Az.
14 Mar 2.7 03:33:28 10° SSE 03:37:32 74° ENE 03:41:38 10° N visible
14 Mar 3.8 16:51:52 10° N 16:55:47 44° WNW 16:59:40 10° SW visible
15 Mar 2.5 03:37:34 10° SSE 03:41:40 83° ENE 03:45:47 10° N visible
15 Mar 4.0 16:56:04 10° N 16:59:54 39° WNW 17:03:42 10° SW visible
16 Mar 2.4 03:41:42 10° SSE 03:45:47 88° WSW 03:49:54 10° NNW visible
16 Mar 4.2 17:00:15 10° N 17:04:00 35° WNW 17:07:44 10° SW visible
17 Mar 4.5 17:04:26 10° N 17:08:05 31° WNW 17:11:43 10° SW visible
18 Mar 4.7 17:08:38 10° NNW 17:12:10 28° WNW 17:15:41 10° SW visible
19 Mar 4.9 17:12:50 10° NNW 17:16:14 26° WNW 17:19:37 10° SW visible
20 Mar 6.0 02:26:26 10° E 02:27:29 11° ENE 02:28:31 10° NE visible
20 Mar 5.1 17:17:02 10° NNW 17:20:17 23° WNW 17:23:32 10° WSW visible
21 Mar 5.9 02:29:55 10° E 02:31:31 12° ENE 02:33:07 10° NE visible
21 Mar 5.3 17:21:15 10° NNW 17:24:20 21° WNW 17:27:25 10° WSW visible
22 Mar 5.8 02:33:33 10° E 02:35:32 13° ENE 02:37:33 10° NE visible
22 Mar 5.4 17:25:27 10° NNW 17:28:22 19° WNW 17:31:16 10° WSW visible
23 Mar 5.7 02:37:14 10° ESE 02:39:34 15° ENE 02:41:53 10° NNE visible
23 Mar 5.6 17:29:42 10° NNW 17:32:23 17° WNW 17:35:04 10° WSW visible
